GW3175 Weather Reports


time (UTC)temp
C
wind
direction
speed
KPH
gust
KPH
rain 1hr
cm
rain 24hr
cm
rain mn
cm
humidity
%
barometer
mb
20260508122409 9 170 6.4 14.5 0.00 0.00 0.00 57 1004.9
20260508121906 9 352 4.8 17.7 0.00 0.00 0.00 58 1005.3
20260508121404 10 233 3.2 12.9 0.00 0.00 0.00 59 1005.2
20260508120901 9 13 8.0 8.0 0.00 0.00 0.00 59 1005.4
20260508120359 9 27 3.2 9.7 0.00 0.00 0.00 60 1005.4
20260508115856 8 45 4.8 17.7 0.00 0.00 0.00 58 1005.2
20260508115354 8 17 4.8 16.1 0.00 0.00 0.00 60 1005.4
20260508114850 8 53 1.6 14.5 0.00 0.00 0.00 59 1005.4
20260508114347 8 350 6.4 12.9 0.00 0.00 0.00 60 1005.4
20260508113844 8 53 4.8 17.7 0.00 0.00 0.00 60 1005.7
20260508113342 8 19 16.1 16.1 0.00 0.00 0.00 59 1005.5
20260508112838 8 108 1.6 12.9 0.00 0.00 0.00 61 1005.3
20260508112335 8 356 6.4 9.7 0.00 0.00 0.00 63 1005.5
20260508111831 7 273 3.2 14.5 0.00 0.00 0.00 61 1005.4
20260508111323 7 343 4.8 9.7 0.00 0.00 0.00 62 1005.1
20260508110820 7 44 11.3 12.9 0.00 0.00 0.00 61 1005.2
20260508110318 7 110 1.6 11.3 0.00 0.00 0.00 62 1005.0
20260508105817 7 215 14.5 14.5 0.00 0.00 0.00 63 1005.1
20260508105314 6 103 4.8 8.0 0.00 0.00 0.00 64 1005.0
20260508104811 6 80 3.2 12.9 0.00 0.00 0.00 67 1005.0
20260508104308 6 94 1.6 4.8 0.00 0.00 0.00 67 1004.9
20260508103805 5 189 3.2 8.0 0.00 0.00 0.00 68 1004.7
20260508103302 5 235 0.0 9.7 0.00 0.00 0.00 69 1004.8
20260508102800 5 164 3.2 9.7 0.00 0.00 0.00 69 1004.8
20260508102258 5 150 4.8 9.7 0.00 0.00 0.00 69 1004.5
20260508101755 5 93 6.4 8.0 0.00 0.00 0.00 70 1004.5
20260508101252 5 12 1.6 9.7 0.00 0.00 0.00 70 1004.5
20260508100749 5 167 8.0 11.3 0.00 0.00 0.00 69 1004.4
20260508100248 4 154 3.2 9.7 0.00 0.00 0.00 70 1004.3
20260508095743 5 298 3.2 8.0 0.00 0.00 0.00 70 1003.9
20260508095241 5 84 3.2 9.7 0.00 0.00 0.00 69 1003.8
20260508094738 5 141 3.2 8.0 0.00 0.00 0.00 68 1004.0
20260508094235 5 88 3.2 6.4 0.00 0.00 0.00 68 1003.8
20260508093732 5 34 3.2 8.0 0.00 0.00 0.00 68 1003.9
20260508093229 5 80 0.0 8.0 0.00 0.00 0.00 68 1003.7
20260508092726 5 118 4.8 8.0 0.00 0.00 0.00 68 1003.6
20260508092225 5 157 4.8 8.0 0.00 0.00 0.00 68 1003.7
20260508091722 5 130 1.6 6.4 0.00 0.00 0.00 69 1003.4
20260508091219 5 126 4.8 8.0 0.00 0.00 0.00 67 1003.7
20260508090717 5 78 3.2 4.8 0.00 0.00 0.00 68 1003.3
20260508090214 5 109 1.6 8.0 0.00 0.00 0.00 67 1003.4
20260508085710 5 126 1.6 6.4 0.00 0.00 0.00 68 1003.5
20260508085207 5 134 3.2 8.0 0.00 0.00 0.00 66 1003.4
20260508084703 5 139 8.0 9.7 0.00 0.00 0.00 68 1003.4
20260508084201 5 143 6.4 8.0 0.00 0.00 0.00 66 1003.6
20260508083658 5 118 4.8 11.3 0.00 0.00 0.00 65 1003.5
20260508083155 5 129 3.2 9.7 0.00 0.00 0.00 65 1003.3
20260508082650 5 137 4.8 12.9 0.00 0.00 0.00 65 1003.4
20260508082148 5 120 4.8 8.0 0.00 0.00 0.00 65 1003.3
20260508081645 5 121 6.4 11.3 0.00 0.00 0.00 65 1003.3
20260508081141 5 179 3.2 9.7 0.00 0.00 0.00 64 1003.5
20260508080638 5 75 3.2 8.0 0.00 0.00 0.00 64 1003.3
20260508080137 5 72 0.0 4.8 0.00 0.00 0.00 64 1003.5
20260508075627 5 103 1.6 8.0 0.00 0.00 0.00 63 1003.5
20260508075124 5 100 1.6 6.4 0.00 0.00 0.00 64 1003.4
20260508074622 5 331 1.6 6.4 0.00 0.00 0.00 64 1003.4
20260508074118 5 144 1.6 4.8 0.00 0.00 0.00 65 1003.4
20260508073616 5 30 4.8 8.0 0.00 0.00 0.00 63 1003.3
20260508073114 6 155 4.8 8.0 0.00 0.00 0.00 63 1003.2
20260508072609 6 133 8.0 12.9 0.00 0.00 0.00 64 1003.3
20260508072106 6 102 3.2 11.3 0.00 0.00 0.00 63 1003.3
20260508071604 6 10 3.2 12.9 0.00 0.00 0.00 62 1003.3
20260508071103 6 241 0.0 16.1 0.00 0.00 0.00 63 1003.3
20260508070559 6 33 4.8 12.9 0.00 0.00 0.00 62 1003.2
20260508070058 6 21 4.8 11.3 0.00 0.00 0.00 61 1003.2
20260508065555 6 303 8.0 16.1 0.00 0.00 0.00 61 1003.3
20260508065053 6 36 3.2 9.7 0.00 0.00 0.00 62 1003.3
20260508064550 6 73 1.6 4.8 0.00 0.00 0.00 63 1003.0
20260508064048 6 57 6.4 14.5 0.00 0.00 0.00 61 1003.1
20260508063545 6 60 3.2 16.1 0.00 0.00 0.00 60 1003.3
20260508063043 6 23 8.0 16.1 0.00 0.00 0.00 60 1003.3
20260508062540 6 23 11.3 12.9 0.00 0.00 0.00 61 1003.3
20260508062036 6 43 4.8 12.9 0.00 0.00 0.00 61 1003.2
20260508061529 6 11 8.0 16.1 0.00 0.00 0.00 61 1003.8
20260508061025 6 95 3.2 9.7 0.00 0.00 0.00 61 1003.7
20260508060522 6 9 8.0 12.9 0.00 0.00 0.00 59 1003.6
20260508060020 6 196 3.2 12.9 0.00 0.00 0.00 59 1003.5
20260508055515 6 80 3.2 22.5 0.00 0.00 0.00 59 1003.7
20260508055012 6 113 4.8 14.5 0.00 0.00 0.00 59 1003.7
20260508054508 6 44 1.6 19.3 0.00 0.00 0.00 58 1003.7
20260508054006 6 14 4.8 19.3 0.00 0.00 0.00 59 1003.7
20260508053502 6 18 9.7 12.9 0.00 0.00 0.00 58 1003.6
20260508053000 6 27 6.4 17.7 0.00 0.00 0.00 59 1003.8
20260508052458 6 348 8.0 17.7 0.00 0.00 0.00 58 1003.8
20260508051954 6 50 1.6 8.0 0.00 0.00 0.00 59 1003.7
20260508051449 6 20 8.0 9.7 0.00 0.00 0.00 58 1003.7
20260508050945 6 306 3.2 16.1 0.00 0.00 0.00 59 1003.8
20260508050442 6 76 4.8 8.0 0.00 0.00 0.00 58 1004.1
20260508045939 6 344 1.6 6.4 0.00 0.00 0.00 58 1004.0
20260508045436 6 120 4.8 6.4 0.00 0.00 0.00 58 1003.9
20260508044933 6 229 3.2 6.4 0.00 0.00 0.00 58 1004.1
20260508044431 6 307 0.0 11.3 0.00 0.00 0.00 58 1004.0
20260508043926 6 96 1.6 6.4 0.00 0.00 0.00 58 1004.0
20260508043424 6 228 0.0 8.0 0.00 0.00 0.00 58 1004.1
20260508042920 6 85 1.6 9.7 0.00 0.00 0.00 56 1004.2
20260508042418 6 15 0.0 9.7 0.00 0.00 0.00 57 1004.0
20260508041914 6 41 8.0 8.0 0.00 0.00 0.00 57 1004.1
20260508041410 6 168 1.6 12.9 0.00 0.00 0.00 56 1004.1
20260508040907 6 129 1.6 4.8 0.00 0.00 0.00 56 1004.5
20260508040404 6 105 3.2 4.8 0.00 0.00 0.00 56 1004.4
20260508035902 7 40 0.0 8.0 0.00 0.41 0.41 55 1004.3
20260508035354 7 288 1.6 9.7 0.00 0.41 0.41 54 1004.4
20260508034850 7 75 0.0 8.0 0.00 0.41 0.41 55 1004.2
20260508034348 7 202 0.0 6.4 0.00 0.41 0.41 55 1004.6
20260508033845 7 201 6.4 9.7 0.00 0.41 0.41 54 1004.7
20260508033343 7 286 3.2 12.9 0.00 0.41 0.41 53 1004.4
20260508032840 7 56 4.8 8.0 0.00 0.41 0.41 54 1004.5
20260508032337 7 353 4.8 14.5 0.00 0.41 0.41 54 1004.6
20260508031834 7 5 1.6 9.7 0.00 0.41 0.41 55 1004.8
20260508031331 7 44 3.2 8.0 0.00 0.41 0.41 54 1004.7
20260508030827 7 64 1.6 11.3 0.00 0.41 0.41 54 1004.5
20260508030324 7 68 0.0 4.8 0.00 0.41 0.41 54 1004.4
20260508025820 7 136 4.8 8.0 0.00 0.41 0.41 54 1004.5
20260508025317 7 54 6.4 8.0 0.00 0.41 0.41 54 1004.2
20260508024814 7 351 3.2 8.0 0.00 0.41 0.41 52 1004.3
20260508024311 7 33 6.4 9.7 0.00 0.41 0.41 53 1004.4
20260508023808 7 34 3.2 8.0 0.00 0.41 0.41 54 1004.3
20260508023304 7 15 4.8 8.0 0.00 0.41 0.41 55 1004.3
20260508022800 7 50 3.2 9.7 0.00 0.41 0.41 54 1004.1
20260508022257 7 176 3.2 8.0 0.00 0.41 0.41 56 1004.1
20260508021754 7 147 0.0 11.3 0.00 0.41 0.41 58 1004.2
20260508021249 7 50 3.2 9.7 0.00 0.41 0.41 56 1004.1
20260508020746 7 16 4.8 8.0 0.00 0.41 0.41 54 1004.3
20260508020244 8 126 0.0 3.2 0.00 0.41 0.41 56 1004.4
20260508015741 8 19 1.6 4.8 0.00 0.41 0.41 55 1004.3
20260508015238 8 92 4.8 8.0 0.00 0.41 0.41 54 1004.1
20260508014735 8 44 1.6 8.0 0.00 0.41 0.41 54 1004.0
20260508014232 8 24 4.8 11.3 0.00 0.41 0.41 52 1004.4
20260508013727 8 61 1.6 9.7 0.00 0.41 0.41 52 1004.0
20260508013224 8 104 0.0 8.0 0.00 0.41 0.41 53 1004.2
20260508012722 9 8 14.5 14.5 0.00 0.41 0.41 50 1004.2
20260508012218 9 63 1.6 11.3 0.00 0.41 0.41 50 1004.0
20260508011717 9 3 4.8 9.7 0.00 0.41 0.41 51 1004.2
20260508011214 10 356 3.2 22.5 0.00 0.41 0.41 50 1004.1
20260508010710 10 16 8.0 14.5 0.00 0.41 0.41 50 1004.0
20260508010208 10 37 3.2 12.9 0.00 0.41 0.41 50 1004.1
20260508005705 10 11 8.0 9.7 0.00 0.41 0.41 52 1003.9
20260508005202 10 339 8.0 14.5 0.00 0.41 0.41 51 1003.7
20260508004657 10 32 6.4 16.1 0.00 0.41 0.41 50 1003.7
20260508004154 10 195 4.8 6.4 0.00 0.41 0.41 54 1003.7
20260508003651 10 51 11.3 16.1 0.00 0.41 0.41 51 1003.6
20260508003149 10 159 0.0 3.2 0.00 0.41 0.41 55 1003.5
20260508002645 10 33 0.0 8.0 0.00 0.41 0.41 51 1003.4
20260508002143 10 19 8.0 22.5 0.00 0.41 0.41 49 1003.3
20260508001638 10 71 4.8 8.0 0.00 0.41 0.41 52 1003.5
20260508001134 11 359 6.4 11.3 0.00 0.41 0.41 50 1003.3
20260508000630 11 3 3.2 24.1 0.00 0.41 0.41 52 1003.1
20260508000128 11 83 8.0 12.9 0.00 0.41 0.41 49 1002.9
20260507235624 11 327 0.0 6.4 0.00 0.41 0.41 50 1002.9
20260507235122 11 296 1.6 16.1 0.00 0.41 0.41 49 1002.7
20260507234618 11 335 0.0 8.0 0.00 0.41 0.41 50 1002.7
20260507234115 11 39 4.8 8.0 0.00 0.41 0.41 50 1002.6
20260507233612 12 16 1.6 11.3 0.00 0.41 0.41 47 1002.4
20260507233110 12 355 4.8 16.1 0.00 0.41 0.41 48 1002.2
20260507232611 12 2 8.0 14.5 0.00 0.41 0.41 45 1002.4
20260507232104 13 344 3.2 24.1 0.00 0.41 0.41 43 1002.4
20260507231600 13 353 4.8 17.7 0.00 0.41 0.41 38 1002.1
20260507231057 13 0 3.2 12.9 0.00 0.41 0.41 39 1002.1
20260507230554 13 8 3.2 11.3 0.00 0.41 0.41 40 1002.0
20260507230050 13 258 3.2 14.5 0.00 0.41 0.41 43 1001.8
20260507225545 13 47 4.8 25.7 0.00 0.41 0.41 38 1001.6
20260507225042 13 36 4.8 14.5 0.00 0.41 0.41 41 1001.6
20260507224538 13 349 6.4 24.1 0.00 0.41 0.41 41 1001.4
20260507224034 14 44 3.2 25.7 0.00 0.41 0.41 43 1001.4
20260507223531 14 0 6.4 12.9 0.00 0.41 0.41 41 1001.2
20260507223028 14 21 4.8 6.4 0.00 0.41 0.41 41 1001.1
20260507222525 14 206 3.2 16.1 0.00 0.41 0.41 40 1001.4
20260507222021 15 264 8.0 16.1 0.00 0.41 0.41 45 1001.3
20260507221518 15 250 3.2 8.0 0.00 0.41 0.41 43 1001.1
20260507221015 15 231 1.6 9.7 0.00 0.41 0.41 43 1001.0
20260507220512 15 2 11.3 12.9 0.00 0.41 0.41 45 1000.9
20260507220009 15 198 4.8 17.7 0.00 0.41 0.41 47 1001.0
20260507215505 15 359 3.2 16.1 0.00 0.41 0.41 47 1001.1
20260507215003 15 331 4.8 8.0 0.00 0.41 0.41 48 1001.1
20260507214500 15 2 0.0 17.7 0.00 0.41 0.41 49 1001.3
20260507213955 15 348 4.8 14.5 0.00 0.41 0.41 48 1001.2
20260507213452 15 18 8.0 12.9 0.00 0.41 0.41 52 1001.0
20260507212949 15 17 12.9 19.3 0.00 0.41 0.41 52 1001.2
20260507212445 14 142 3.2 8.0 0.00 0.41 0.41 57 1000.9
20260507211942 15 20 6.4 12.9 0.00 0.41 0.41 57 1001.1
20260507211438 15 318 0.0 9.7 0.00 0.41 0.41 61 1000.9
20260507210935 14 107 3.2 14.5 0.00 0.41 0.41 66 1001.1
20260507210432 13 195 3.2 16.1 0.00 0.41 0.41 68 1001.1
20260507205928 13 267 4.8 8.0 0.00 0.41 0.41 71 1001.1
20260507205421 13 198 4.8 12.9 0.00 0.41 0.41 71 1001.0
20260507204916 13 38 3.2 6.4 0.00 0.41 0.41 68 1000.9
20260507204413 13 8 4.8 8.0 0.00 0.41 0.41 70 1000.9
20260507203911 13 46 0.0 6.4 0.00 0.41 0.41 68 1000.8
20260507203409 14 197 4.8 9.7 0.00 0.41 0.41 68 1000.8
20260507202905 14 95 4.8 12.9 0.00 0.41 0.41 65 1000.7
20260507202401 14 194 4.8 11.3 0.00 0.41 0.41 66 1000.7
20260507201856 13 129 4.8 8.0 0.00 0.41 0.41 67 1000.7
20260507201352 13 253 4.8 12.9 0.00 0.41 0.41 67 1000.8
20260507200849 13 193 9.7 14.5 0.00 0.41 0.41 68 1000.7
20260507200345 14 124 8.0 16.1 0.00 0.41 0.41 65 1000.6
20260507195841 15 160 8.0 20.9 0.00 0.41 0.41 64 1000.7
20260507195338 15 141 3.2 14.5 0.00 0.41 0.41 63 1000.7
20260507194835 15 138 6.4 17.7 0.00 0.41 0.41 64 1000.7
20260507194326 14 103 1.6 8.0 0.00 0.41 0.41 69 1000.7
20260507193823 14 143 6.4 14.5 0.00 0.41 0.41 66 1000.6
20260507193320 15 135 3.2 11.3 0.00 0.41 0.41 64 1000.7
20260507192815 15 327 1.6 11.3 0.00 0.41 0.41 61 1001.0
20260507192313 16 56 11.3 14.5 0.00 0.41 0.41 48 1000.7
20260507191809 16 13 1.6 14.5 0.00 0.41 0.41 49 1000.8
20260507191305 16 6 4.8 17.7 0.00 0.41 0.41 50 1000.8
20260507190802 16 184 4.8 19.3 0.00 0.41 0.41 50 1000.9
20260507190301 16 192 6.4 9.7 0.00 0.41 0.41 56 1001.0
20260507185759 16 89 4.8 4.8 0.00 0.41 0.41 59 1000.9
20260507185255 15 31 8.0 11.3 0.00 0.41 0.41 62 1000.8
20260507184753 16 334 6.4 12.9 0.00 0.41 0.41 62 1001.0
20260507184251 15 143 0.0 6.4 0.00 0.41 0.41 61 1000.9
20260507183747 16 112 4.8 8.0 0.00 0.41 0.41 63 1001.0
20260507183244 15 4 4.8 12.9 0.00 0.41 0.41 66 1001.2
20260507182742 15 20 8.0 16.1 0.00 0.41 0.41 65 1001.3
20260507182236 15 27 4.8 8.0 0.00 0.41 0.41 67 1001.3
20260507181734 16 13 6.4 11.3 0.00 0.41 0.41 57 1001.0
20260507181230 16 348 4.8 8.0 0.00 0.41 0.41 51 1001.2
20260507180726 16 216 3.2 8.0 0.00 0.41 0.41 59 1001.4
20260507180223 15 179 1.6 11.3 0.00 0.41 0.41 54 1001.5
20260507175719 15 137 4.8 6.4 0.00 0.41 0.41 61 1001.4
20260507175216 16 24 3.2 9.7 0.00 0.41 0.41 64 1001.5
20260507174714 15 214 4.8 12.9 0.00 0.41 0.41 68 1001.7
20260507174211 15 229 8.0 17.7 0.00 0.41 0.41 72 1001.6
20260507173709 14 133 11.3 16.1 0.00 0.41 0.41 71 1001.7
20260507173205 14 131 8.0 17.7 0.00 0.41 0.41 73 1001.6
20260507172702 14 182 3.2 8.0 0.00 0.41 0.41 72 1001.7
20260507172158 13 121 1.6 14.5 0.00 0.41 0.41 72 1001.8
20260507171653 13 136 12.9 19.3 0.00 0.41 0.41 74 1001.6
20260507171150 12 266 1.6 11.3 0.00 0.41 0.41 75 1001.8
20260507170647 12 167 0.0 12.9 0.00 0.41 0.41 77 1001.8
20260507170144 12 89 16.1 17.7 0.00 0.41 0.41 77 1002.0
20260507165640 12 23 3.2 20.9 0.00 0.41 0.41 77 1001.9
20260507165136 12 116 11.3 12.9 0.00 0.41 0.41 78 1001.7
20260507164632 12 99 6.4 16.1 0.00 0.41 0.41 76 1002.0
20260507164130 12 236 12.9 19.3 0.00 0.41 0.41 77 1001.8
20260507163627 12 80 11.3 20.9 0.00 0.41 0.41 76 1002.0
20260507163125 13 24 14.5 16.1 0.00 0.41 0.41 73 1002.1
20260507162620 13 73 8.0 14.5 0.00 0.41 0.41 73 1002.3
20260507162117 13 12 4.8 16.1 0.00 0.41 0.41 75 1002.1
20260507161613 13 106 6.4 11.3 0.00 0.41 0.41 75 1002.0
20260507161110 12 50 8.0 14.5 0.00 0.41 0.41 76 1002.2
20260507160606 12 124 1.6 14.5 0.00 0.41 0.41 77 1002.4
20260507155558 12 305 1.6 11.3 0.00 0.41 0.41 75 1002.6
20260507155055 12 3 3.2 9.7 0.00 0.41 0.41 75 1002.6
20260507154552 13 118 11.3 12.9 0.00 0.41 0.41 74 1002.3
20260507154049 13 80 8.0 17.7 0.00 0.41 0.41 74 1002.4
20260507153546 13 148 3.2 14.5 0.00 0.41 0.41 75 1002.5
20260507153042 13 265 4.8 12.9 0.00 0.41 0.41 74 1002.6
20260507152538 13 83 8.0 12.9 0.00 0.41 0.41 74 1002.7
20260507152034 13 320 1.6 11.3 0.00 0.41 0.41 76 1002.4
20260507151530 15 201 3.2 9.7 0.00 0.41 0.41 73 1002.6
20260507151022 15 75 8.0 12.9 0.00 0.41 0.41 71 1002.7
20260507150519 15 161 3.2 6.4 0.00 0.41 0.41 69 1002.8
20260507150016 13 141 3.2 6.4 0.00 0.41 0.41 72 1002.6
20260507145510 15 358 4.8 6.4 0.00 0.41 0.41 66 1002.7
20260507145009 13 257 0.0 8.0 0.00 0.41 0.41 68 1003.0
20260507144505 13 223 3.2 4.8 0.00 0.41 0.41 67 1002.7
20260507144002 13 329 8.0 12.9 0.00 0.41 0.41 70 1002.8
20260507143459 12 171 1.6 4.8 0.00 0.41 0.41 71 1003.0
20260507142956 13 235 0.0 8.0 0.00 0.41 0.41 70 1003.2
20260507142452 13 154 3.2 8.0 0.00 0.41 0.41 71 1003.2
20260507141949 12 221 3.2 11.3 0.00 0.41 0.41 74 1003.3
20260507141445 13 155 1.6 4.8 0.00 0.41 0.41 69 1003.2
20260507140942 13 321 6.4 8.0 0.00 0.41 0.41 71 1003.1
20260507140438 13 170 4.8 6.4 0.00 0.41 0.41 71 1003.3
20260507135936 13 303 3.2 6.4 0.00 0.41 0.41 75 1003.2
20260507135433 13 317 0.0 6.4 0.00 0.41 0.41 73 1003.3
20260507134930 12 89 1.6 8.0 0.00 0.41 0.41 79 1003.4
20260507134426 12 176 6.4 9.7 0.00 0.41 0.41 73 1003.3
20260507133922 12 146 3.2 9.7 0.00 0.41 0.41 73 1003.3
20260507133418 12 147 0.0 11.3 0.00 0.41 0.41 72 1003.3
20260507132911 12 17 4.8 9.7 0.00 0.41 0.41 74 1003.5
20260507132407 12 200 11.3 14.5 0.00 0.41 0.41 76 1003.4
20260507131906 11 8 3.2 11.3 0.00 0.41 0.41 75 1003.8
20260507131401 12 297 3.2 4.8 0.00 0.41 0.41 76 1003.8
20260507130858 12 329 1.6 6.4 0.00 0.41 0.41 77 1003.8
20260507130355 11 347 3.2 11.3 0.00 0.41 0.41 80 1003.5
20260507125854 11 4 1.6 11.3 0.00 0.41 0.41 78 1003.6
20260507125351 11 38 14.5 14.5 0.00 0.41 0.41 80 1003.6
20260507124848 11 336 11.3 17.7 0.00 0.41 0.41 81 1003.7
20260507124344 11 18 6.4 9.7 0.00 0.41 0.41 82 1003.5
20260507123843 10 355 8.0 14.5 0.00 0.41 0.41 81 1003.9
20260507123340 10 14 3.2 9.7 0.00 0.41 0.41 85 1003.6